Location: Helsinki
(60.1699°N, 24.9384°E)
Time: 16:25:30
(UTC+03:00)

ISS - Visible Passes

Search period start: 07 July 2020 00:00
Search period end: 17 July 2020 00:00
Orbit: 417 x 421 km, 51.6° (Epoch: 07 July)

Date Brightness Start Highest point End Pass type
(mag) Time Alt. Az. Time Alt. Az. Time Alt. Az.
09 Jul -1.6 02:05:40 10° S 02:06:49 11° SSE 02:07:59 10° SE visible
11 Jul -2.0 02:05:43 10° SSW 02:07:52 16° SSE 02:10:00 10° SE visible
12 Jul -1.9 01:18:50 11° S 01:20:26 14° SSE 01:22:13 10° SE visible
13 Jul -1.7 00:31:52 10° S 00:33:01 11° SSE 00:34:10 10° SE visible
13 Jul -2.3 02:06:28 10° SW 02:08:55 19° S 02:11:22 10° SE visible
14 Jul -2.2 01:19:06 10° SSW 01:21:26 18° S 01:23:47 10° SE visible
14 Jul -2.2 02:55:04 10° SW 02:57:27 18° S 02:59:51 10° SE visible
15 Jul -2.1 00:31:49 10° SSW 00:33:58 16° SSE 00:36:06 10° SE visible
15 Jul -2.3 02:07:29 10° SW 02:09:58 19° S 02:12:27 10° SE visible
15 Jul -1.9 23:44:43 10° S 23:46:30 14° SSE 23:48:16 10° SE visible
16 Jul -2.4 01:19:57 10° SW 01:22:27 19° S 01:24:57 10° SE visible
16 Jul -2.0 02:56:28 10° SW 02:58:26 15° SSW 03:00:24 10° SSE visible
